Weather in Baykal

Russia / Novosibirsk Oblast     55°38′17″N   83°53′14″E
temp.,
°C
wind,
m/s
gust,
m/s
humid.,
%
clouds,
%
prec.,
mm/h
press.,
hPa
HPBL,
m
22 january, sat
sat2201:00−22nne1110077 0.0 10339
04:00−22nne1110061 0.0 103310
07:00−23nne1110060 0.0 10339
10:00−22ene11100100 0.0 103412
13:00−13ne129197 0.0 1033120
16:00−12nne0194100 0.0 103353
19:00−18se11100100 0.0 10349
22:00−19s11100100 0.0 10359
23 january, sun
sun2301:00−20ssw1110080 0.0 10359
04:00−22ssw1110076 0.0 10359
07:00−22sw11100100 0.0 103514
10:00−21sw22100100 0.0 103633
13:00−14wsw2394100 0.1 1035157
16:00−12wsw2393100 0.1 1034259
19:00−13sw1297100 0.3 103464
22:00−12wsw1296100 0.7 1035103
24 january, mon
mon2401:00−15nnw119982 1.0 103510
04:00−20ne11100100 0.0 10369
07:00−23nw11100100 0.1 10389
10:00−23nw11100100 0.1 104014
13:00−16nw2296100 0.1 1040159
16:00−14wnw229595 0.0 1040153
19:00−20wsw1110083 0.0 10419
22:00−20ssw22100100 0.0 104120
25 january, tue
tue2501:00−20ssw22100100 0.1 104144
04:00−21sw2410091 0.0 104061
07:00−22sw2510085 0.0 104075
10:00−22ssw259996 0.0 104086
13:00−17sw349395 0.0 1039190
16:00−14sw249279 0.0 1037237
19:00−19s229972 0.0 103831
22:00−21ssw2410082 0.0 103847
26 january, wed
wed2601:00−21s229974 0.0 103742
04:00−21ssw2210086 0.0 103744
07:00−24s2210066 0.0 103715
10:00−22s229984 0.0 103746
13:00−16s129263 0.0 1035161
16:00−14sse1292100 0.0 1034148
19:00−20se22100100 0.0 103518
22:00−18se2497100 0.0 103468